Location: Observatoire de Paris
(48.8363°N, 2.3365°E)
Time: 20:30:40
(UTC+01:00)

Transit 4A - All Passes

Search period start: 27 July 2021 00:00
Search period end: 06 August 2021 00:00
Orbit: 872 x 972 km, 66.8° (Epoch: 26 July)

Date Brightness Start Highest point End Pass type
(mag) Time Alt. Az. Time Alt. Az. Time Alt. Az.
27 Jul - 00:34:24 10° SE 00:38:08 18° ESE 00:41:52 10° ENE visible
27 Jul - 02:17:46 10° SSW 02:23:42 90° ESE 02:29:34 10° NE visible
27 Jul - 04:05:59 10° W 04:10:49 26° NNW 04:15:38 10° NNE visible
27 Jul - 05:56:32 10° NW 05:59:20 13° N 06:02:09 10° NNE daylight
27 Jul - 07:44:26 10° NNW 07:48:14 17° NNE 07:52:04 10° ENE daylight
27 Jul - 09:30:25 10° NNW 09:36:04 47° NE 09:41:46 10° ESE daylight
27 Jul - 11:16:57 10° NW 11:22:21 39° WSW 11:27:49 10° S daylight
28 Jul - 00:42:26 10° SSE 00:47:09 26° ESE 00:51:51 10° NE visible
28 Jul - 02:27:10 10° SW 02:33:02 67° NW 02:38:52 10° NNE visible
28 Jul - 04:16:07 10° WNW 04:20:29 21° NNW 04:24:51 10° NNE visible
28 Jul - 06:06:32 10° NNW 06:09:13 13° N 06:11:54 10° NNE daylight
28 Jul - 07:53:41 10° NNW 07:57:59 20° NNE 08:02:18 10° ENE daylight
28 Jul - 09:39:40 10° NNW 09:45:30 63° NE 09:51:23 10° SE daylight
28 Jul - 11:26:35 10° NW 11:31:27 27° WSW 11:36:21 10° SSW daylight
29 Jul - 00:50:54 10° S 00:56:14 36° ESE 01:01:31 10° NE visible
29 Jul - 02:36:44 10° WSW 02:42:26 49° NW 02:48:07 10° NNE visible
29 Jul - 04:26:21 10° WNW 04:30:14 18° NNW 04:34:07 10° NNE visible
29 Jul - 06:16:20 10° NNW 06:19:06 13° N 06:21:53 10° NE daylight
29 Jul - 08:02:55 10° NNW 08:07:41 25° NNE 08:12:28 10° E daylight
29 Jul - 09:48:57 10° NW 09:54:50 86° NE 10:00:49 10° SE daylight
29 Jul - 11:36:30 10° WNW 11:40:28 19° WSW 11:44:30 10° SSW daylight
30 Jul - 00:59:41 10° SSW 01:05:23 52° ESE 01:11:02 10° NE visible
30 Jul - 02:46:30 10° WSW 02:51:56 38° NW 02:57:21 10° NNE visible
30 Jul - 04:36:37 10° NW 04:40:02 16° NNW 04:43:26 10° NNE visible
30 Jul - 06:25:53 10° NNW 06:28:58 14° NNE 06:32:04 10° NE daylight
30 Jul - 08:12:08 10° NNW 08:17:18 31° NE 08:22:30 10° E daylight
30 Jul - 09:58:18 10° NW 10:04:08 70° WSW 10:10:03 10° SSE daylight
30 Jul - 11:47:03 10° WNW 11:49:26 13° WSW 11:51:49 10° SW daylight
30 Jul - 23:26:34 10° SE 23:29:16 13° ESE 23:31:57 10° ENE visible
31 Jul - 01:08:44 10° SSW 01:14:36 74° ESE 01:20:26 10° NE visible
31 Jul - 02:56:25 10° W 03:01:29 29° NW 03:06:34 10° NNE visible
31 Jul - 04:46:52 10° NW 04:49:52 14° N 04:52:52 10° NNE visible
31 Jul - 06:35:18 10° NNW 06:38:48 16° NNE 06:42:19 10° NE daylight
31 Jul - 08:21:21 10° NNW 08:26:51 40° NE 08:32:22 10° ESE daylight
31 Jul - 10:07:42 10° NW 10:13:21 49° WSW 10:19:03 10° S daylight
31 Jul - 23:34:05 10° SSE 23:38:14 20° ESE 23:42:20 10° ENE visible
01 Aug - 01:17:59 10° SW 01:23:54 81° NW 01:29:46 10° NE visible
01 Aug - 03:06:28 10° W 03:11:08 24° NNW 03:15:47 10° NNE visible
01 Aug - 04:57:00 10° NNW 04:59:45 13° N 05:02:29 10° NNE daylight
01 Aug - 06:44:36 10° NNW 06:48:36 18° NNE 06:52:36 10° ENE daylight
01 Aug - 08:30:35 10° NNW 08:36:19 52° NE 08:42:07 10° SE daylight
01 Aug - 10:17:14 10° NW 10:22:29 35° WSW 10:27:47 10° S daylight
01 Aug - 23:42:18 10° SSE 23:47:16 29° ESE 23:52:12 10° NE visible
02 Aug - 01:27:27 10° SW 01:33:16 60° NW 01:39:03 10° NNE visible
02 Aug - 03:16:38 10° WNW 03:20:50 20° NNW 03:25:02 10° NNE visible
02 Aug - 05:06:56 10° NNW 05:09:38 13° N 05:12:19 10° NNE daylight
02 Aug - 06:53:51 10° NNW 06:58:20 22° NNE 07:02:49 10° E daylight
02 Aug - 08:39:51 10° NNW 08:45:42 71° NE 08:51:40 10° SE daylight
02 Aug - 10:26:57 10° WNW 10:31:33 24° WSW 10:36:13 10° SSW daylight
02 Aug - 23:50:54 10° S 23:56:22 41° ESE 00:01:48 10° NE visible
03 Aug - 01:37:06 10° WSW 01:42:42 45° NW 01:48:17 10° NNE visible
03 Aug - 03:26:53 10° WNW 03:30:36 17° NNW 03:34:18 10° NNE visible
03 Aug - 05:16:38 10° NNW 05:19:30 14° N 05:22:23 10° NE daylight
03 Aug - 07:03:05 10° NNW 07:08:00 27° NE 07:12:57 10° E daylight
03 Aug - 08:49:09 10° NW 08:55:03 85° SW 09:01:01 10° SSE daylight
03 Aug - 10:37:00 10° WNW 10:40:33 17° WSW 10:44:08 10° SW daylight
03 Aug - 23:59:46 10° SSW 00:05:32 59° ESE 00:11:16 10° NE visible
04 Aug - 01:46:53 10° WSW 01:52:13 34° NW 01:57:31 10° NNE visible
04 Aug - 03:37:10 10° NW 03:40:24 15° NNW 03:43:40 10° NNE visible
04 Aug - 05:26:08 10° NNW 05:29:22 15° NNE 05:32:36 10° NE daylight
04 Aug - 07:12:18 10° NNW 07:17:35 34° NE 07:22:55 10° ESE daylight
04 Aug - 08:58:31 10° NW 09:04:17 62° WSW 09:10:10 10° SSE daylight
04 Aug - 10:48:16 10° W 10:49:29 11° W 10:50:44 10° WSW daylight
04 Aug - 22:26:01 10° SE 22:29:20 16° ESE 22:32:38 10° ENE visible
05 Aug - 00:08:54 10° SSW 00:14:47 82° ESE 00:20:39 10° NE visible
05 Aug - 01:56:52 10° W 02:01:48 27° NW 02:06:44 10° NNE visible
05 Aug - 03:47:22 10° NW 03:50:16 14° N 03:53:09 10° NNE visible
05 Aug - 05:35:30 10° NNW 05:39:11 17° NNE 05:42:53 10° ENE daylight
05 Aug - 07:21:31 10° NNW 07:27:06 44° NE 07:32:46 10° ESE daylight
05 Aug - 09:07:58 10° NW 09:13:29 43° WSW 09:19:05 10° S daylight
05 Aug - 22:33:50 10° SSE 22:38:19 23° ESE 22:42:46 10° ENE visible
